TimeEST,TemperatureF,Dew PointF,Humidity,Sea Level PressureIn,VisibilityMPH,Wind Direction,Wind SpeedMPH,Gust SpeedMPH,PrecipitationIn,Events,Conditions,WindDirDegrees,DateUTC
12:53 AM,41.0,30.9,67,30.37,10.0,ENE,6.9,-,N/A,,Clear,60,2012-12-31 05:53:00
1:53 AM,41.0,32.0,70,30.35,10.0,ENE,8.1,-,N/A,,Clear,70,2012-12-31 06:53:00
2:53 AM,39.0,33.1,79,30.35,10.0,NE,8.1,-,N/A,,Clear,50,2012-12-31 07:53:00
3:53 AM,39.0,34.0,82,30.35,10.0,NNE,5.8,-,N/A,,Clear,30,2012-12-31 08:53:00
4:26 AM,39.2,33.8,81,30.33,10.0,NE,6.9,-,N/A,,Mostly Cloudy,50,2012-12-31 09:26:00
4:33 AM,39.2,33.8,81,30.33,10.0,NE,5.8,-,N/A,,Scattered Clouds,50,2012-12-31 09:33:00
4:53 AM,39.0,34.0,82,30.33,10.0,NE,6.9,-,N/A,,Clear,50,2012-12-31 09:53:00
5:42 AM,39.2,35.6,87,30.33,10.0,NE,5.8,-,N/A,,Mostly Cloudy,50,2012-12-31 10:42:00
5:53 AM,41.0,36.0,82,30.33,10.0,NE,5.8,-,N/A,,Overcast,40,2012-12-31 10:53:00
6:53 AM,42.1,37.0,82,30.33,10.0,NE,6.9,-,N/A,,Overcast,50,2012-12-31 11:53:00
7:53 AM,44.1,39.0,82,30.37,10.0,NE,6.9,-,N/A,,Overcast,50,2012-12-31 12:53:00
8:53 AM,48.9,44.1,83,30.32,10.0,East,8.1,-,N/A,,Overcast,90,2012-12-31 13:53:00
9:53 AM,53.1,46.9,80,30.35,10.0,ENE,5.8,-,N/A,,Overcast,70,2012-12-31 14:53:00
10:53 AM,55.9,48.9,77,30.35,10.0,ESE,9.2,-,N/A,,Overcast,110,2012-12-31 15:53:00
11:53 AM,59.0,50.0,72,30.33,10.0,East,9.2,-,N/A,,Overcast,100,2012-12-31 16:53:00
12:53 PM,60.1,51.1,72,30.30,10.0,ESE,6.9,-,N/A,,Mostly Cloudy,120,2012-12-31 17:53:00
1:53 PM,61.0,52.0,72,30.27,10.0,East,3.5,-,N/A,,Overcast,90,2012-12-31 18:53:00
2:49 PM,62.6,51.8,68,30.26,10.0,Variable,4.6,-,N/A,,Scattered Clouds,0,2012-12-31 19:49:00
2:53 PM,63.0,52.0,67,30.25,10.0,East,4.6,-,N/A,,Partly Cloudy,100,2012-12-31 19:53:00
3:53 PM,61.0,52.0,72,30.24,10.0,East,4.6,-,N/A,,Overcast,90,2012-12-31 20:53:00
4:53 PM,61.0,53.1,75,30.23,10.0,East,5.8,-,N/A,,Overcast,90,2012-12-31 21:53:00
5:53 PM,60.1,53.1,78,30.22,10.0,East,3.5,-,N/A,,Overcast,100,2012-12-31 22:53:00
6:53 PM,57.9,52.0,81,30.22,10.0,East,5.8,-,N/A,,Mostly Cloudy,90,2012-12-31 23:53:00
7:53 PM,57.0,52.0,83,30.22,10.0,East,5.8,-,N/A,,Overcast,90,2013-01-01 00:53:00
8:53 PM,57.0,53.1,87,30.23,10.0,ESE,6.9,-,N/A,,Scattered Clouds,110,2013-01-01 01:53:00
9:53 PM,59.0,54.0,83,30.23,10.0,SE,8.1,-,N/A,,Overcast,130,2013-01-01 02:53:00
10:53 PM,59.0,55.0,87,30.22,10.0,SE,10.4,-,N/A,,Clear,130,2013-01-01 03:53:00
11:53 PM,60.1,54.0,80,30.20,10.0,SE,9.2,-,N/A,,Scattered Clouds,130,2013-01-01 04:53:00